Temperature
17 17 17 17 16 16 16 16 15 15 15 15 15 14 14 14 14 14 14 14 14 14 13 13 13 13 13 13 13 13 13 13 13 13 13 13 13 14 14 14 14 14 14
17 17 17 17 16 16 16 15 15 15 15 15 15 14 14 14 14 14 14 14 13 13 13 13 13 13 13 13 13 13 13 13 13 13 13 13 13 13 13 13 13 13 14
17 17 17 16 16 16 16 15 15 15 15 15 14 14 14 14 14 14 14 13 13 13 13 13 13 13 13 13 13 13 13 13 13 13 13 13 13 13 13 13 13 13 13
17 17 16 16 16 16 15 15 15 15 15 14 14 14 14 14 14 14 13 13 13 13 13 12 12 13 13 13 13 13 13 13 13 13 12 12 13 13 13 13 13 13 13
17 17 16 16 16 15 15 15 15 15 14 14 14 14 14 13 13 13 13 13 13 13 12 12 12 12 12 12 12 12 12 12 12 12 12 12 12 12 12 12 12 12 13
17 17 16 16 16 15 15 15 15 14 14 14 13 13 13 13 13 13 13 13 12 12 12 12 12 12 12 12 12 12 12 12 12 12 12 12 12 12 12 12 12 12 12
17 17 16 16 15 15 15 14 14 14 14 13 13 13 13 13 13 13 13 12 12 12 12 12 12 12 12 12 12 12 12 12 12 12 12 12 11 11 12 12 12 12 12
17 16 16 16 15 15 15 14 14 14 13 13 13 13 13 13 13 12 12 12 12 12 12 11 11 11 11 11 11 11 12 11 11 11 11 11 11 11 11 11 11 11 11
17 16 16 15 15 15 14 14 14 13 13 13 13 13 12 12 12 12 12 12 12 11 11 11 11 11 11 11 11 11 11 11 11 11 11 11 11 11 11 11 11 11 11
16 16 16 15 15 15 14 14 13 13 13 13 12 12 12 12 12 12 12 12 11 11 11 11 11 11 11 11 11 11 11 10 11 11 11 11 11 11 11 11 10 10 10
16 16 15 15 15 14 14 14 13 13 13 12 12 12 12 12 12 12 11 11 11 11 11 10 10 10 10 10 10 10 10 10 10 10 10 10 10 10 10 10 10 10 10
16 15 15 15 14 14 14 13 13 13 12 12 12 12 11 11 11 11 11 11 10 10 10 10 10 10 10 10 10 10 10 10 10 10 9 9 10 10 10 10 10 10 10
15 15 15 14 14 13 13 13 13 12 12 12 11 11 11 11 11 11 10 10 10 10 10 10 10 10 10 10 10 10 9 9 9 9 9 9 9 9 9 9 9 9 9
15 15 14 14 13 13 13 13 12 12 12 12 11 11 11 11 11 10 10 10 10 10 9 9 9 9 9 9 9 9 9 9 9 9 8 8 9 9 9 9 9 9 9
15 14 14 13 13 13 13 12 12 12 12 12 11 11 11 11 10 10 10 10 9 9 9 9 9 9 9 9 8 8 8 8 8 8 8 8 8 8 8 8 8 8 8
14 14 13 13 13 12 12 12 12 12 11 11 11 11 11 11 10 10 10 9 9 9 8 8 8 8 8 8 8 8 8 8 8 7 7 7 8 8 8 8 7 8 8
14 14 13 13 12 12 12 12 11 11 11 11 11 11 11 10 10 10 9 9 9 8 8 8 8 8 8 8 8 8 7 7 7 7 7 7 7 7 7 7 7 7 7
13 13 13 13 12 12 12 11 11 11 11 11 10 10 10 10 10 9 9 9 9 8 8 8 8 7 7 7 7 7 7 7 7 7 7 7 7 7 7 7 7 7 7
13 13 13 12 12 11 11 11 11 10 10 10 10 10 10 9 9 9 9 8 8 8 8 8 7 7 7 7 7 7 7 7 7 7 6 6 6 6 6 6 6 6 6
13 12 12 12 12 11 11 11 10 10 10 10 10 10 9 9 9 8 8 8 8 8 7 7 7 7 7 7 7 7 6 6 6 6 6 6 6 6 6 6 6 6 6
12 12 12 12 11 11 11 10 10 10 10 10 9 9 9 9 8 8 8 8 7 7 7 7 7 7 7 7 6 6 6 6 6 6 6 6 6 6 6 5 5 5 5
12 12 11 11 11 11 10 10 10 10 9 9 9 9 8 8 8 8 7 7 7 7 7 7 7 6 6 6 6 6 6 5 5 5 5 5 5 5 5 5 5 5 5
11 11 11 11 10 10 10 10 9 9 9 9 9 8 8 8 8 7 7 7 7 7 6 6 6 6 6 6 6 5 5 5 5 5 5 5 5 5 5 5 5 4 4
11 10 10 10 10 10 10 9 9 9 9 8 8 8 8 7 7 7 7 7 6 6 6 6 6 6 6 5 5 5 5 5 4 4 4 4 4 4 4 4 4 4 4
10 10 10 10 9 9 9 9 9 8 8 8 8 7 7 7 7 6 6 6 6 6 6 5 5 5 5 5 5 5 5 4 4 4 4 4 4 4 4 4 4 4 4
10 9 9 9 9 9 9 8 8 8 8 7 7 7 7 6 6 6 6 5 5 5 5 5 5 5 5 5 4 4 4 4 4 4 4 3 3 3 3 3 4 4 4
Wind_Speed
5 5 4 3 3 3 3 2 3 2 2 2 2 3 3 3 3 3 3 4 4 4 4 4 5 4 3 3 3 2 2 1 2 3 2 3 4 4 4 4 3 1 1
5 4 5 4 3 2 2 2 2 2 2 2 3 3 4 4 4 4 4 4 4 4 5 5 5 5 5 4 3 3 3 2 2 3 3 3 3 3 3 3 3 3 1
6 5 5 4 3 2 2 2 2 2 2 3 3 4 4 4 5 5 5 5 4 4 4 4 5 6 5 4 4 4 3 4 2 2 3 2 2 3 3 3 4 2 3
6 5 5 4 4 2 2 3 2 2 3 3 4 4 5 5 6 6 6 5 5 4 4 3 4 4 4 5 5 5 4 4 3 3 3 3 2 3 3 2 3 3 3
6 6 5 5 4 3 3 3 3 3 4 4 4 4 5 5 6 7 6 6 5 5 4 3 3 3 4 3 3 4 4 4 3 3 2 2 2 3 2 2 2 2 3
7 6 5 5 4 3 3 3 3 3 3 3 4 4 5 5 7 9 7 6 5 5 4 4 3 3 4 4 5 5 4 4 3 3 2 2 3 2 2 2 2 2 3
8 7 6 5 5 4 3 3 2 2 2 3 3 4 5 4 7 8 9 6 5 4 5 5 5 6 6 4 5 5 5 6 4 2 2 3 3 3 3 3 3 3 3
8 8 7 6 5 4 3 2 1 1 2 2 2 3 3 3 5 7 9 6 4 4 5 6 6 6 7 7 5 4 4 4 4 3 2 3 3 3 3 3 3 3 3
8 8 7 6 5 4 4 2 1 1 1 1 1 1 1 2 3 5 6 4 4 4 4 5 6 5 9 10 7 6 5 4 5 6 6 5 6 5 4 2 2 2 3
8 8 7 6 6 5 4 2 1 1 1 1 1 1 2 2 2 3 5 3 4 4 3 3 6 6 8 10 7 6 6 6 6 5 5 6 5 5 5 2 1 1 2
8 7 7 6 6 5 4 2 2 1 1 1 0 0 1 3 3 1 2 2 3 4 4 3 3 6 8 9 8 5 7 7 6 5 4 4 3 3 2 3 2 2 2
7 7 7 6 5 5 4 3 2 1 1 1 1 1 1 2 3 1 0 2 4 3 3 3 2 6 8 9 7 8 11 9 5 4 4 3 3 3 2 2 4 4 3
7 7 6 6 4 4 4 3 2 2 2 2 1 1 1 1 1 2 1 3 4 2 3 5 6 8 9 7 9 10 8 5 4 4 4 3 3 3 3 2 3 4 4
8 7 6 5 5 4 3 3 2 2 1 1 1 1 1 0 1 0 1 2 3 3 3 5 8 8 7 8 7 6 4 3 4 3 4 4 3 3 3 2 2 3 3
7 7 6 5 5 4 3 2 2 2 3 2 2 1 1 1 1 1 1 2 2 3 4 4 4 4 4 4 4 4 3 3 3 3 4 3 3 3 3 3 2 2 3
6 6 5 5 4 4 4 2 0 2 3 3 3 2 1 2 2 2 3 4 5 6 4 4 5 5 5 4 4 3 3 3 3 3 4 3 3 3 4 3 2 2 3
6 5 4 4 4 4 4 4 2 2 3 3 4 4 5 5 5 5 5 6 7 6 4 5 5 5 4 4 3 3 3 3 3 3 4 4 3 3 4 4 3 3 4
5 5 5 4 4 4 3 3 3 3 3 3 5 7 7 7 7 7 7 4 4 3 4 5 5 4 4 4 3 3 3 4 3 3 4 4 3 4 4 4 4 4 4
5 4 4 4 3 3 3 3 3 4 3 2 2 3 6 6 7 7 5 3 4 5 5 5 4 4 4 3 3 3 4 4 4 3 4 5 4 4 4 4 4 6 5
4 6 5 4 3 3 3 3 3 3 3 2 2 2 2 2 3 3 4 5 5 5 5 5 4 4 3 3 3 3 4 4 4 4 4 4 4 4 4 5 4 5 5
4 5 7 4 3 3 3 2 2 2 2 2 2 3 3 3 4 4 4 4 5 5 4 4 3 3 3 3 3 4 5 5 4 4 4 4 4 4 4 4 5 5 5
4 4 4 4 3 3 2 2 2 3 3 3 2 3 4 3 4 4 4 4 4 4 3 3 4 4 3 4 4 4 4 5 4 4 4 4 4 5 5 5 5 5 6
4 4 4 4 3 4 4 3 3 3 3 3 2 2 3 4 4 4 4 4 3 3 3 3 4 4 4 5 5 4 4 5 4 4 4 5 5 5 5 6 7 8 7
4 4 4 4 3 4 4 4 3 3 3 3 3 3 3 4 4 4 4 4 4 4 4 4 5 6 8 7 7 7 7 7 6 5 5 6 6 6 7 7 7 8 7
4 4 4 4 4 4 4 3 3 3 3 3 3 3 3 4 4 4 4 4 4 5 6 6 6 7 9 10 9 9 10 10 10 9 7 6 7 8 8 8 8 8 7
4 4 3 3 3 4 4 4 4 4 4 4 4 4 4 4 4 4 4 4 4 5 6 6 8 10 11 11 12 12 12 11 11 12 10 6 7 8 8 8 10 8 8
Wind_Direction
145 134 126 122 106 92 82 72 77 67 63 64 46 42 38 25 21 25 8 9 10 9 7 11 0 2 360 358 357 353 343 334 302 309 322 340 353 357 5 4 352 276 215
140 132 126 116 104 100 92 71 80 87 59 55 42 41 38 23 15 17 9 8 10 10 8 12 4 6 6 2 0 352 340 332 333 319 323 342 343 347 346 340 339 351 359
140 133 126 118 107 100 95 75 51 56 62 55 49 46 38 24 18 14 6 360 9 15 17 22 11 11 6 354 354 354 342 342 337 328 319 327 336 351 354 350 350 343 347
136 132 123 120 115 109 91 80 51 35 50 53 45 42 42 39 29 15 4 0 4 9 17 30 27 23 5 353 356 351 345 343 338 337 324 327 335 342 13 356 351 340 328
142 139 136 124 115 109 93 82 56 35 38 49 49 46 42 48 32 20 358 359 358 359 360 13 26 27 18 358 355 346 350 348 341 334 329 341 345 352 350 334 343 331 324
146 139 126 120 116 105 93 84 69 45 32 36 53 56 50 47 32 23 9 350 344 355 352 354 10 14 2 345 338 346 351 350 337 333 332 341 330 335 333 326 337 344 325
142 133 131 128 121 115 105 93 91 69 47 32 46 64 74 61 33 15 4 344 337 351 354 356 4 16 15 4 347 338 327 322 318 307 324 321 318 323 331 327 321 314 289
143 139 138 134 133 130 118 116 131 114 89 63 59 67 86 69 36 13 358 342 337 353 7 19 17 16 12 5 348 345 334 326 314 316 303 293 302 307 303 299 294 308 304
142 144 142 139 139 137 135 150 174 126 106 113 120 115 121 101 50 20 3 340 342 356 14 23 16 21 11 5 353 341 333 324 327 329 322 309 305 310 315 331 328 341 318
145 144 142 142 143 146 150 160 154 121 160 183 150 164 151 129 117 38 13 346 348 351 1 13 23 23 11 8 359 346 337 327 328 322 316 314 310 310 311 290 263 292 308
140 139 139 143 149 151 149 150 145 151 198 285 219 203 124 123 139 81 25 355 345 344 344 350 353 8 4 352 346 334 318 311 312 312 307 309 312 312 315 319 310 248 261
133 135 141 149 158 150 141 153 159 166 201 264 277 265 202 143 148 175 295 330 336 333 327 337 328 332 333 330 328 321 322 322 312 312 318 320 323 321 317 328 331 318 286
136 142 148 150 148 143 148 163 173 184 207 232 229 244 252 177 154 180 228 311 325 317 315 315 310 310 314 313 309 310 316 316 309 308 310 301 295 294 304 313 317 316 317
151 154 153 156 155 150 152 165 172 188 214 249 263 263 274 124 91 65 303 301 302 295 291 299 302 299 296 294 299 297 288 285 290 283 287 288 296 307 306 291 287 296 303
158 158 159 159 158 156 152 156 173 183 190 202 229 251 257 253 268 255 292 302 304 304 314 303 293 290 287 283 280 276 274 283 293 289 284 289 297 300 298 299 288 289 281
161 162 160 157 157 158 156 154 92 189 176 175 183 200 212 218 254 285 293 293 298 302 309 289 286 284 282 286 288 293 292 289 286 292 290 285 286 291 296 299 292 276 276
161 160 155 156 162 170 174 178 197 235 238 235 230 225 219 231 253 270 281 291 293 294 280 272 276 280 284 284 281 283 288 289 295 301 297 290 289 290 295 294 283 279 277
156 156 154 157 163 179 192 199 201 202 219 239 239 231 228 236 248 256 266 288 288 270 256 267 274 281 284 287 287 284 283 287 288 292 295 286 281 283 285 285 284 275 275
156 159 159 160 172 187 196 206 214 217 218 216 205 230 233 242 253 255 252 250 262 264 261 263 266 269 273 277 280 283 286 284 282 284 289 284 277 279 283 280 284 287 281
167 169 166 169 183 193 199 207 217 221 225 223 222 210 207 228 250 250 239 244 254 263 265 264 262 263 267 270 272 276 283 285 283 281 285 286 280 276 277 278 277 280 276
167 173 180 185 191 197 201 204 215 224 233 233 226 210 211 234 243 248 245 247 252 260 265 269 272 271 265 265 268 271 275 277 277 277 282 288 284 277 275 275 276 276 276
169 179 188 188 190 196 201 209 219 227 233 235 227 221 227 244 250 253 254 257 257 255 258 265 275 267 260 253 260 263 269 274 278 280 282 284 286 278 272 272 276 280 275
182 185 192 198 195 197 208 218 222 226 231 231 231 234 233 246 256 261 266 270 272 276 273 271 278 278 269 267 263 256 261 265 269 271 279 279 281 284 279 275 275 277 271
194 197 199 200 201 202 211 220 225 232 234 237 242 243 243 251 263 268 271 273 277 280 277 276 271 275 281 284 279 275 272 273 278 274 270 276 278 281 281 274 273 271 267
199 198 200 200 203 207 214 222 228 235 239 243 247 250 251 256 264 269 271 274 278 278 278 279 279 280 280 282 283 283 282 280 279 277 274 267 273 275 277 275 273 274 269
206 208 209 208 210 213 217 222 225 232 239 246 248 249 252 257 263 266 268 268 272 275 275 274 277 282 284 282 283 283 282 276 275 276 273 267 271 273 274 274 274 268 267
Height
1560 1561 1562 1563 1563 1564 1564 1564 1564 1563 1563 1563 1562 1561 1560 1559 1558 1558 1557 1556 1554 1553 1552 1551 1550 1549 1548 1547 1546 1546 1545 1545 1543 1542 1542 1541 1539 1538 1538 1537 1536 1536 1536
1559 1560 1561 1562 1563 1563 1564 1564 1564 1564 1563 1563 1562 1561 1560 1560 1559 1558 1557 1556 1555 1553 1552 1551 1550 1549 1548 1546 1545 1545 1544 1543 1542 1541 1540 1539 1539 1538 1536 1536 1535 1535 1534
1558 1559 1560 1561 1562 1563 1563 1563 1563 1563 1563 1563 1562 1561 1560 1559 1558 1557 1557 1556 1555 1553 1552 1551 1549 1548 1547 1546 1545 1544 1543 1542 1541 1540 1539 1538 1537 1536 1535 1534 1534 1533 1533
1556 1558 1559 1560 1561 1562 1562 1562 1562 1563 1562 1562 1561 1560 1560 1559 1558 1557 1556 1555 1554 1553 1552 1550 1549 1547 1546 1545 1544 1542 1542 1541 1540 1539 1538 1537 1536 1535 1534 1533 1532 1532 1532
1555 1556 1558 1559 1560 1561 1561 1561 1561 1561 1561 1561 1560 1559 1559 1558 1557 1556 1555 1554 1553 1552 1551 1549 1548 1547 1545 1544 1543 1542 1540 1539 1538 1537 1536 1536 1535 1534 1533 1532 1531 1530 1530
1553 1554 1556 1557 1558 1559 1560 1560 1560 1560 1560 1560 1559 1559 1558 1557 1556 1555 1554 1553 1552 1551 1550 1549 1547 1546 1544 1543 1542 1540 1540 1539 1537 1536 1535 1534 1533 1533 1532 1531 1530 1529 1528
1551 1553 1554 1556 1557 1558 1558 1559 1559 1559 1559 1559 1558 1558 1557 1556 1555 1554 1553 1552 1551 1550 1549 1548 1546 1545 1543 1541 1540 1539 1538 1537 1536 1536 1534 1532 1532 1531 1530 1529 1528 1528 1527
1549 1551 1552 1554 1555 1556 1557 1557 1558 1558 1558 1557 1557 1556 1556 1555 1554 1553 1552 1551 1550 1549 1548 1547 1545 1543 1542 1540 1538 1537 1536 1535 1534 1533 1532 1531 1530 1529 1529 1528 1527 1526 1525
1547 1548 1550 1552 1553 1554 1555 1556 1556 1556 1556 1556 1556 1555 1555 1554 1553 1552 1551 1550 1549 1548 1547 1545 1544 1542 1540 1538 1537 1535 1534 1533 1532 1531 1530 1529 1528 1528 1527 1525 1524 1523 1522
1544 1546 1548 1550 1551 1552 1553 1554 1554 1555 1555 1555 1555 1554 1553 1553 1552 1551 1550 1549 1547 1546 1545 1543 1542 1540 1539 1537 1535 1533 1531 1530 1530 1528 1527 1526 1526 1525 1525 1524 1523 1522 1520
1542 1544 1546 1547 1549 1550 1551 1552 1552 1553 1553 1553 1553 1553 1552 1552 1551 1550 1549 1547 1546 1544 1543 1541 1540 1538 1537 1535 1533 1531 1530 1529 1527 1526 1525 1524 1523 1522 1522 1521 1521 1520 1519
1540 1542 1544 1545 1547 1548 1549 1550 1550 1551 1551 1551 1551 1551 1550 1550 1549 1548 1547 1546 1544 1542 1541 1539 1538 1536 1534 1533 1531 1529 1528 1526 1525 1523 1522 1521 1521 1520 1519 1518 1517 1517 1516
1537 1539 1541 1543 1544 1545 1546 1547 1548 1548 1548 1549 1549 1548 1548 1547 1547 1546 1545 1543 1542 1540 1538 1537 1535 1534 1532 1530 1528 1527 1525 1523 1522 1520 1519 1519 1518 1517 1516 1515 1513 1513 1512
1534 1536 1539 1540 1542 1543 1544 1545 1545 1546 1546 1546 1546 1546 1545 1545 1544 1543 1542 1540 1539 1537 1535 1534 1532 1531 1529 1527 1525 1524 1522 1521 1519 1518 1517 1516 1515 1514 1513 1512 1510 1509 1507
1532 1534 1536 1538 1539 1540 1541 1542 1543 1543 1544 1543 1543 1543 1542 1541 1541 1540 1539 1537 1536 1534 1532 1530 1529 1527 1525 1524 1522 1521 1519 1518 1517 1516 1514 1513 1512 1511 1509 1508 1507 1505 1504
1529 1531 1533 1534 1536 1537 1538 1539 1540 1540 1540 1540 1540 1540 1539 1539 1538 1537 1535 1534 1533 1531 1529 1527 1525 1524 1522 1521 1519 1518 1517 1515 1514 1513 1511 1510 1509 1507 1506 1505 1503 1502 1500
1526 1528 1530 1531 1532 1534 1535 1535 1536 1537 1537 1537 1537 1536 1536 1535 1534 1533 1532 1530 1529 1527 1526 1524 1522 1521 1519 1518 1517 1515 1513 1512 1511 1509 1508 1506 1505 1504 1502 1501 1499 1498 1497
1523 1525 1526 1528 1529 1530 1531 1532 1533 1533 1533 1533 1533 1532 1532 1531 1530 1529 1528 1526 1524 1523 1522 1520 1519 1517 1516 1515 1513 1512 1510 1508 1507 1506 1504 1503 1501 1500 1499 1497 1496 1494 1493
1520 1521 1523 1525 1526 1527 1528 1529 1529 1529 1529 1529 1529 1528 1528 1527 1526 1525 1524 1522 1520 1519 1518 1516 1515 1514 1512 1511 1509 1508 1506 1504 1503 1501 1500 1498 1497 1496 1495 1493 1492 1490 1489
1516 1518 1520 1521 1522 1524 1524 1525 1526 1526 1526 1525 1525 1524 1524 1523 1521 1520 1519 1518 1516 1515 1514 1512 1511 1509 1508 1506 1505 1503 1502 1500 1498 1497 1496 1494 1493 1492 1490 1489 1487 1486 1484
1513 1514 1516 1518 1519 1520 1521 1521 1521 1522 1522 1521 1521 1520 1520 1519 1517 1516 1515 1514 1512 1511 1509 1508 1506 1505 1503 1502 1500 1498 1497 1495 1494 1492 1491 1489 1487 1486 1485 1484 1482 1481 1479
1508 1510 1512 1513 1515 1515 1516 1517 1517 1517 1517 1517 1516 1516 1515 1514 1513 1512 1511 1509 1508 1506 1505 1503 1501 1500 1498 1497 1495 1494 1492 1490 1489 1487 1485 1484 1482 1481 1479 1478 1476 1475 1474
1504 1506 1507 1509 1510 1511 1512 1512 1512 1513 1513 1512 1512 1511 1510 1509 1508 1507 1506 1504 1503 1501 1499 1498 1496 1494 1493 1491 1490 1488 1486 1485 1483 1481 1480 1478 1476 1475 1473 1472 1470 1469 1467
1500 1501 1503 1504 1505 1506 1507 1507 1508 1508 1508 1507 1507 1506 1505 1504 1503 1502 1500 1499 1497 1495 1493 1492 1490 1488 1487 1485 1484 1482 1481 1479 1477 1475 1474 1472 1470 1468 1467 1465 1464 1462 1461
1495 1496 1498 1499 1500 1501 1502 1502 1502 1502 1502 1502 1501 1501 1500 1499 1497 1496 1494 1493 1491 1489 1487 1486 1484 1482 1480 1478 1477 1475 1474 1472 1471 1469 1467 1465 1463 1461 1460 1458 1457 1455 1454
1490 1492 1493 1494 1495 1495 1496 1496 1497 1497 1497 1496 1496 1495 1494 1493 1491 1490 1488 1486 1484 1482 1481 1479 1477 1475 1473 1472 1470 1468 1467 1465 1463 1462 1460 1458 1456 1454 1452 1450 1449 1448 1447